Showing default

GJZ 05, 62294

Orbit data source: Space-Track

GJZ 05, 62294 is a payload satellite owned by CASC (CN) in LEO that was launched on Thu, 12 Dec 2024 UTC via a CHANG ZHENG 2D/YZ-3 launch vehicle from the Jiuquan Satellite Launch Center, China (JSC). Payload-class satellites include a variety of spacecraft equipped with specific instruments for various scientific and technological missions. These include communications satellites like Starlink; space stations such as the ISS; scientific satellites like the Hubble; Earth observation satellites from companies like Planet Labs, Umbra, and HawkEye 360; GPS; miniature CubeSats for education and research; and military/defense satellites.

Loading next visibility...
Identifier
62294, 2024-238E
Orbit
LEO
Country
Flag of CNCN / PRC
Related business
Manufacturer
HITSAT
Mission
Operational Civil Communications
Bus & Motor
HARBFLAT, Unknown motor
Mass
~150 kg wet, ~150 kg dry
Launch date (UTC)
2024-12-12 (2 years ago)
Launch vehicle
CHANG ZHENG 2D/YZ-3
Launch site
Jiuquan Satellite Launch Center, China (JSC)
Object type
Payload
Rocket body
Debris
Shape & HBR
Box + 2 Pan, 1.5 m
Radar Cross Section
0.240 m², Large (>1 m²)

Expand to show TLE details & history
Last TLE update: 9 hours ago

TLE from 9 hours ago
0 GJZ 05
1 62294U 24238E   26171.54539135 -.00000063  00000-0  58424-4 0  9991
2 62294  59.9120 260.8134 0016140  15.3138 344.8355 13.75192265 76374
Epoch: 2026-06-20T13:05Z
TLE epoch observation values (Epoch: 2026-06-20T13:05:21.812Z)
Latitude
-0.00003°
Longitude
155.71402°
Altitude
971.01 km
Speed
7.373 km/s
True Right ascension
17h 23m 15s
True Declination
0° 00' 00"
Sunlit
Object was in full shadow at epoch
Visualization orbit readout
Latitude
Unknown
Longitude
Unknown
Altitude
Unknown
Speed
Unknown
Apparent Right ascension
Unknown
Apparent Declination
Unknown
Sunlit
N/A
Visualization observer readout
Local Sidereal Time
08:42:50
Azimuth
Unknown
Elevation
Unknown
Doppler factor
Unknown
Orbital elements
Apogee altitude
992.134 km
Perigee altitude
968.381 km
Semi-major axis
7,358.394 km
Eccentricity
0.00161
Inclination
59.912°
RAAN
260.8134°
Arg. of periapsis
15.3138°
True anomaly
344.78702°
Mean anomaly
344.8355°
Eccentric anomaly
344.81127°
Mean motion
3.4385 °/min
Orbital period
104.7 mins
BSTAR
0.000058424
Loading maneuver chart data...
Computing Atmospheric mass density...
Loading historical data...
Loading historical data...
Loading historical data...
Loading historical data...
Loading historical data...
Loading historical data...
Loading historical data...
Other satellites on launch #238 in the year 2024 (2024-12-12 UTC)

Documentation

Showing up to 5 results
|